User: anonymous   Login
Location: Burgerwiesen
(48.6500°N, 15.6167°E)
Time: 15:56:14
(UTC+00:00)
Language:

STARLINK-1241 - Orbit

View from above orbital plane
View from above orbital plane
View from above satellite
View from above satellite

Ground track
Ground track

The orbit data is extracted from the following two-line orbital elements,

1 45195C 20012T   21164.48317241  .00000605  00000-0  40566-4 0  1643
2 45195  53.0538 253.8291 0000911 125.0560 177.8290 15.06377142    11
Epoch (UTC): 13 June 2021 11:35:46
Eccentricity: 0.0000911
inclination: 53.0538°
perigee height: 546 km
apogee height: 548 km
right ascension of ascending node: 253.8291°
argument of perigee: 125.0560°
revolutions per day: 15.06377142
mean anomaly at epoch: 177.8290°
orbit number at epoch: 1

The dashed part of the orbit path shows where the satellite is in the earth's shadow,  

DLR